User: anonymous   Login
Location: Mactaquac Provincial Park
(45.9573°N, 66.8897°W)
Time: 15:04:33
(UTC-03:00)
Language:

Cosmos 1867 - Orbit

View from above orbital plane
View from above orbital plane
View from above satellite
View from above satellite

Ground track
Ground track

The orbit data is extracted from the following two-line orbital elements,

1 18187U 87060A   16125.83997658 -.00000079  00000-0  79297-5 0  9992
2 18187  65.0104 291.5941 0020981 269.9549  89.9131 14.31073439505565
Epoch (UTC): 04 May 2016 20:09:33
Eccentricity: 0.0020981
inclination: 65.0104°
perigee height: 773 km
apogee height: 803 km
right ascension of ascending node: 291.5941°
argument of perigee: 269.9549°
revolutions per day: 14.31073439
mean anomaly at epoch: 89.9131°
orbit number at epoch: 50556

The dashed part of the orbit path shows where the satellite is in the earth's shadow,  

DLR